Lancaster, PA

12:09 AM EDT on March 28, 2017 (GMT -0400)
Lancaster

Weather History for KLNS - November, 2011

Change the Weather History Date:

Monday, November 14, 2011

  Actual Average Record
Temperature  
Mean Temperature 58 °F -  
Max Temperature 70 °F 51 °F 74 °F (1989)
Min Temperature 45 °F 31 °F 14 °F (1986)
Degree Days  
Heating Degree Days 8    
Growing Degree Days 8 (Base 50)    
Moisture  
Dew Point 45 °F    
Average Humidity 60    
Maximum Humidity 80    
Minimum Humidity 43    
Precipitation  
Precipitation 0.00 in - - ()
Sea Level Pressure  
Sea Level Pressure 29.86 in    
Wind  
Wind Speed 4 mph (South)    
Max Wind Speed 13 mph    
Max Gust Speed 17 mph    
Visibility 10 miles    
Events      
Averages and records for this station are not official NWS values.
T = Trace of Precipitation, MM = Missing Value Source: NWS Daily Summary

Daily Weather History Graph

Daily Weather History Graph

Search for Another Location

Airport or City:

Trip Planner

Search our weather history database for the weather conditions in past years. The results will help you decide how hot, cold, wet, or windy it might be!

Date:

Astronomy

Nov. 14, 2011 Rise Set
Actual Time 6:49 AM EST 4:49 PM EST
Civil Twilight 6:20 AM EST 5:18 PM EST
Nautical Twilight 5:47 AM EST 5:51 PM EST
Astronomical Twilight 5:15 AM EST 6:23 PM EST
Moon 7:54 PM EST (11/14) 10:06 AM EST (11/14)
Length of Visible Light 10h 58m
Length of Day
10h 00m
Waning Gibbous, 87% of the Moon is Illuminated
Nov 14
Waning Gibbous
Nov 18
Last Quarter
Nov 25
New
Dec 2
First Quarter
Dec 10
Full

Hourly Weather History & Observations

Time (EST) Temp. Dew Point Humidity Pressure Visibility Wind Dir Wind Speed Gust Speed Precip Events Conditions
12:53 AM 52.0 °F 30.0 °F 43% 29.95 in 10.0 mi South 3.5 mph - N/A   Clear
1:53 AM 51.1 °F 32.0 °F 48% 29.95 in 10.0 mi Calm Calm - N/A   Clear
2:53 AM 48.0 °F 34.0 °F 58% 29.95 in 10.0 mi Calm Calm - N/A   Clear
3:53 AM 46.9 °F 36.0 °F 66% 29.94 in 10.0 mi Calm Calm - N/A   Clear
4:53 AM 48.0 °F 36.0 °F 63% 29.95 in 10.0 mi Calm Calm - N/A   Clear
5:53 AM 45.0 °F 37.0 °F 74% 29.95 in 10.0 mi Calm Calm - N/A   Clear
7:53 AM 46.9 °F 41.0 °F 80% 29.94 in 6.0 mi ESE 4.6 mph - N/A   Haze
8:53 AM 53.1 °F 45.0 °F 74% 29.94 in 9.0 mi East 3.5 mph - N/A   Clear
9:53 AM 59.0 °F 46.9 °F 64% 29.93 in 10.0 mi Variable 6.9 mph - N/A   Clear
10:53 AM 63.0 °F 48.0 °F 58% 29.91 in 10.0 mi SSW 9.2 mph - N/A   Clear
11:53 AM 66.9 °F 50.0 °F 54% 29.87 in 10.0 mi SSW 4.6 mph - N/A   Mostly Cloudy
12:53 PM 70.0 °F 50.0 °F 49% 29.83 in 10.0 mi SSW 4.6 mph - N/A   Clear
1:53 PM 68.0 °F 50.0 °F 52% 29.81 in 10.0 mi SW 10.4 mph - N/A   Clear
2:53 PM 68.0 °F 50.0 °F 52% 29.81 in 10.0 mi SW 6.9 mph - N/A   Clear
3:53 PM 66.9 °F 50.0 °F 54% 29.80 in 10.0 mi South 8.1 mph - N/A   Clear
4:53 PM 64.0 °F 50.0 °F 60% 29.78 in 10.0 mi SSE 4.6 mph - N/A   Clear
5:53 PM 59.0 °F 50.0 °F 72% 29.77 in 10.0 mi SE 5.8 mph - N/A   Clear
6:53 PM 64.0 °F 50.0 °F 60% 29.76 in 10.0 mi South 5.8 mph - N/A   Clear
8:53 PM 66.0 °F 50.0 °F 56% 29.75 in 10.0 mi SSW 10.4 mph - N/A   Clear
9:53 PM 66.0 °F 50.0 °F 56% 29.75 in 10.0 mi SSW 12.7 mph 17.3 mph N/A   Clear
10:53 PM 63.0 °F 50.0 °F 63% 29.75 in 10.0 mi South 8.1 mph - N/A   Partly Cloudy
11:53 PM 64.0 °F 51.1 °F 63% 29.75 in 10.0 mi SW 6.9 mph - N/A   Clear